SUR4015 SAAR-SABE

Flight info

Callsign SUR4015
Flight time 0h 50m
Altitude 130
Route VASA1C VASAL W20 MULTA W24 SNT SNT9R
Aircraft ATR/M-V/N

Departure

Time 2026-05-04 03:50
Airport Rosario Islas Malvinas International Airport (SAAR)

Arrival

Time 2026-05-04 04:41
Airport Aeroparque Jorge Newbery (SABE)
Time Latitude Longitude Altitude Speed Heading
2026-05-04 03:34 -32.91650 -60.78071 93 ft 0 kts 101°
2026-05-04 03:37 -32.91651 -60.78067 93 ft 0 kts 103°
2026-05-04 03:37 -32.91651 -60.78066 93 ft 0 kts 104°
2026-05-04 03:39 -32.91649 -60.78076 93 ft 2 kts 104°
2026-05-04 03:40 -32.91645 -60.78096 93 ft 3 kts 104°
2026-05-04 03:40 -32.91640 -60.78120 93 ft 3 kts 104°
2026-05-04 03:40 -32.91635 -60.78143 93 ft 1 kts 104°
2026-05-04 03:40 -32.91638 -60.78135 93 ft 6 kts 124°
2026-05-04 03:41 -32.91664 -60.78141 93 ft 4 kts 218°
2026-05-04 03:41 -32.91691 -60.78167 93 ft 6 kts 221°
2026-05-04 03:41 -32.91712 -60.78193 93 ft 2 kts 240°
2026-05-04 03:41 -32.91716 -60.78205 93 ft 1 kts 252°
2026-05-04 03:42 -32.91718 -60.78212 93 ft 1 kts 256°
2026-05-04 03:42 -32.91718 -60.78214 93 ft 0 kts 256°
2026-05-04 03:43 -32.91722 -60.78232 93 ft 6 kts 256°
2026-05-04 03:43 -32.91731 -60.78277 93 ft 7 kts 257°
2026-05-04 03:43 -32.91744 -60.78343 93 ft 7 kts 258°
2026-05-04 03:43 -32.91756 -60.78415 93 ft 11 kts 259°
2026-05-04 03:44 -32.91765 -60.78475 93 ft 8 kts 260°
2026-05-04 03:44 -32.91764 -60.78553 93 ft 7 kts 280°
2026-05-04 03:44 -32.91754 -60.78594 93 ft 2 kts 290°
2026-05-04 03:44 -32.91748 -60.78612 93 ft 2 kts 291°
2026-05-04 03:45 -32.91742 -60.78628 93 ft 2 kts 300°
2026-05-04 03:45 -32.91731 -60.78643 93 ft 3 kts 323°
2026-05-04 03:45 -32.91701 -60.78665 93 ft 7 kts 328°
2026-05-04 03:45 -32.91663 -60.78692 93 ft 7 kts 332°
2026-05-04 03:46 -32.91610 -60.78720 93 ft 9 kts 340°
2026-05-04 03:46 -32.91553 -60.78727 93 ft 0 kts 12°
2026-05-04 03:46 -32.91546 -60.78725 93 ft 2 kts 12°
2026-05-04 03:46 -32.91516 -60.78717 93 ft 7 kts 12°
2026-05-04 03:47 -32.91504 -60.78714 93 ft 0 kts 12°
2026-05-04 03:49 -32.91436 -60.78697 93 ft 42 kts 12°
2026-05-04 03:50 -32.90904 -60.78572 93 ft 108 kts 11°
2026-05-04 03:50 -32.90058 -60.78374 300 ft 130 kts 11°
2026-05-04 03:50 -32.89160 -60.78164 746 ft 133 kts 12°
2026-05-04 03:50 -32.88161 -60.77953 1001 ft 158 kts 14°
2026-05-04 03:51 -32.87054 -60.77750 1544 ft 156 kts
2026-05-04 03:51 -32.86031 -60.77552 2174 ft 157 kts 11°
2026-05-04 03:51 -32.84828 -60.77307 2283 ft 184 kts 11°
2026-05-04 03:51 -32.83527 -60.77029 2556 ft 196 kts
2026-05-04 03:52 -32.82197 -60.76603 2805 ft 208 kts 22°
2026-05-04 03:52 -32.81198 -60.75311 3057 ft 226 kts 60°
2026-05-04 03:52 -32.81043 -60.73407 3312 ft 242 kts 97°
2026-05-04 03:52 -32.81873 -60.71641 3566 ft 253 kts 133°
2026-05-04 03:53 -32.83388 -60.70531 3836 ft 258 kts 155°
2026-05-04 03:53 -32.85054 -60.69717 4090 ft 260 kts 155°
2026-05-04 03:53 -32.86668 -60.68744 4341 ft 261 kts 147°
2026-05-04 03:53 -32.88135 -60.67475 4608 ft 259 kts 137°
2026-05-04 03:54 -32.89573 -60.66213 4847 ft 261 kts 144°
2026-05-04 03:54 -32.91136 -60.65089 5101 ft 263 kts 149°
2026-05-04 03:54 -32.92772 -60.64111 5356 ft 263 kts 157°
2026-05-04 03:54 -32.94455 -60.63253 5609 ft 263 kts 160°
2026-05-04 03:55 -32.96167 -60.62478 5862 ft 264 kts 162°
2026-05-04 03:55 -32.97905 -60.61754 6115 ft 265 kts 163°
2026-05-04 03:55 -32.99667 -60.61050 6366 ft 267 kts 164°
2026-05-04 03:55 -33.01434 -60.60371 6615 ft 268 kts 164°
2026-05-04 03:56 -33.03224 -60.59702 6868 ft 270 kts 165°
2026-05-04 03:56 -33.05022 -60.59029 7121 ft 272 kts 165°
2026-05-04 03:56 -33.06808 -60.58357 7367 ft 273 kts 165°
2026-05-04 03:56 -33.08626 -60.57673 7619 ft 275 kts 165°
2026-05-04 03:57 -33.10462 -60.56981 7870 ft 277 kts 165°
2026-05-04 03:57 -33.12302 -60.56287 8121 ft 279 kts 165°
2026-05-04 03:57 -33.14166 -60.55584 8373 ft 280 kts 164°
2026-05-04 03:57 -33.16033 -60.54879 8624 ft 282 kts 164°
2026-05-04 03:58 -33.19752 -60.53463 9117 ft 271 kts 163°
2026-05-04 03:58 -33.21511 -60.52786 9358 ft 258 kts 164°
2026-05-04 03:58 -33.23165 -60.52159 9598 ft 248 kts 165°
2026-05-04 03:59 -33.24785 -60.51548 9839 ft 239 kts 165°
2026-05-04 03:59 -33.26344 -60.50962 10081 ft 231 kts 165°
2026-05-04 03:59 -33.27861 -60.50392 10323 ft 225 kts 165°
2026-05-04 03:59 -33.29342 -60.49834 10577 ft 219 kts 166°
2026-05-04 04:00 -33.30774 -60.49292 10818 ft 214 kts 167°
2026-05-04 04:00 -33.32180 -60.48743 10950 ft 216 kts 163°
2026-05-04 04:00 -33.33525 -60.47841 10984 ft 225 kts 149°
2026-05-04 04:00 -33.34765 -60.46694 11019 ft 231 kts 144°
2026-05-04 04:01 -33.35994 -60.45411 11023 ft 239 kts 141°
2026-05-04 04:01 -33.37239 -60.44043 11009 ft 247 kts 140°
2026-05-04 04:01 -33.38506 -60.42615 11005 ft 253 kts 140°
2026-05-04 04:01 -33.39793 -60.41145 11003 ft 257 kts 139°
2026-05-04 04:02 -33.41092 -60.39652 11003 ft 261 kts 139°
2026-05-04 04:02 -33.42404 -60.38135 11002 ft 263 kts 139°
2026-05-04 04:02 -33.43729 -60.36601 11002 ft 265 kts 139°
2026-05-04 04:02 -33.45063 -60.35053 11001 ft 268 kts 139°
2026-05-04 04:03 -33.46386 -60.33517 11001 ft 270 kts 139°
2026-05-04 04:03 -33.47738 -60.31945 11001 ft 271 kts 139°
2026-05-04 04:03 -33.49096 -60.30365 11001 ft 273 kts 139°
2026-05-04 04:03 -33.50461 -60.28776 11001 ft 274 kts 139°
2026-05-04 04:04 -33.51836 -60.27174 11001 ft 276 kts 139°
2026-05-04 04:04 -33.53213 -60.25569 11001 ft 277 kts 139°
2026-05-04 04:04 -33.54603 -60.23948 11000 ft 278 kts 139°
2026-05-04 04:04 -33.55994 -60.22327 11001 ft 279 kts 138°
2026-05-04 04:05 -33.57389 -60.20698 11002 ft 280 kts 138°
2026-05-04 04:05 -33.58766 -60.19090 11000 ft 280 kts 138°
2026-05-04 04:05 -33.60164 -60.17456 10998 ft 280 kts 139°
2026-05-04 04:05 -33.61563 -60.15820 10998 ft 280 kts 139°
2026-05-04 04:06 -33.62958 -60.14188 10998 ft 280 kts 139°
2026-05-04 04:06 -33.63883 -60.13107 10999 ft 280 kts 139°
2026-05-04 04:06 -33.65284 -60.11466 10999 ft 281 kts 139°
2026-05-04 04:06 -33.66686 -60.09825 11000 ft 281 kts 139°
2026-05-04 04:07 -33.68092 -60.08178 11001 ft 282 kts 139°
2026-05-04 04:07 -33.69499 -60.06529 11001 ft 282 kts 139°
2026-05-04 04:07 -33.70888 -60.04901 11001 ft 283 kts 139°
2026-05-04 04:07 -33.72297 -60.03248 11001 ft 283 kts 139°
2026-05-04 04:08 -33.73716 -60.01611 11001 ft 283 kts 140°
2026-05-04 04:08 -33.75145 -59.99971 11002 ft 284 kts 137°
2026-05-04 04:08 -33.76557 -59.98324 10998 ft 283 kts 135°
2026-05-04 04:08 -33.77961 -59.96666 10994 ft 282 kts 134°
2026-05-04 04:09 -33.79358 -59.95010 10993 ft 281 kts 134°
2026-05-04 04:09 -33.80743 -59.93365 10993 ft 280 kts 134°
2026-05-04 04:09 -33.82127 -59.91725 10993 ft 279 kts 134°
2026-05-04 04:09 -33.83510 -59.90087 10993 ft 278 kts 134°
2026-05-04 04:10 -33.84873 -59.88474 10993 ft 277 kts 134°
2026-05-04 04:10 -33.86249 -59.86848 10992 ft 277 kts 134°
2026-05-04 04:10 -33.87625 -59.85220 10992 ft 276 kts 134°
2026-05-04 04:10 -33.88996 -59.83601 10992 ft 275 kts 135°
2026-05-04 04:11 -33.90361 -59.81987 10992 ft 275 kts 135°
2026-05-04 04:11 -33.91725 -59.80375 10991 ft 274 kts 135°
2026-05-04 04:11 -33.93070 -59.78785 10992 ft 274 kts 134°
2026-05-04 04:11 -33.94428 -59.77179 10993 ft 273 kts 134°
2026-05-04 04:12 -33.95787 -59.75571 10993 ft 273 kts 134°
2026-05-04 04:12 -33.97146 -59.73963 10993 ft 273 kts 134°
2026-05-04 04:12 -33.98497 -59.72363 10993 ft 273 kts 134°
2026-05-04 04:12 -33.99850 -59.70760 10993 ft 272 kts 134°
2026-05-04 04:13 -34.01203 -59.69156 10993 ft 272 kts 134°
2026-05-04 04:13 -34.02552 -59.67557 10993 ft 272 kts 134°
2026-05-04 04:13 -34.03884 -59.65977 10993 ft 272 kts 134°
2026-05-04 04:13 -34.05230 -59.64379 10993 ft 271 kts 134°
2026-05-04 04:14 -34.06578 -59.62778 10993 ft 271 kts 134°
2026-05-04 04:14 -34.07922 -59.61182 10993 ft 271 kts 134°
2026-05-04 04:14 -34.09270 -59.59580 10993 ft 271 kts 134°
2026-05-04 04:14 -34.10613 -59.57984 10993 ft 271 kts 134°
2026-05-04 04:15 -34.11955 -59.56387 10993 ft 271 kts 134°
2026-05-04 04:15 -34.13300 -59.54786 10993 ft 271 kts 134°
2026-05-04 04:15 -34.14641 -59.53189 10993 ft 271 kts 134°
2026-05-04 04:15 -34.15967 -59.51610 10993 ft 271 kts 134°
2026-05-04 04:16 -34.17308 -59.50011 10993 ft 271 kts 134°
2026-05-04 04:16 -34.18650 -59.48410 10993 ft 271 kts 134°
2026-05-04 04:16 -34.19985 -59.46806 10993 ft 270 kts 133°
2026-05-04 04:16 -34.21222 -59.45092 10993 ft 270 kts 128°
2026-05-04 04:17 -34.22361 -59.43293 10993 ft 270 kts 126°
2026-05-04 04:17 -34.23449 -59.41447 10993 ft 270 kts 124°
2026-05-04 04:17 -34.24505 -59.39577 10993 ft 270 kts 123°
2026-05-04 04:17 -34.25539 -59.37701 10992 ft 266 kts 123°
2026-05-04 04:18 -34.26553 -59.35833 10992 ft 263 kts 122°
2026-05-04 04:18 -34.27545 -59.33985 10992 ft 261 kts 122°
2026-05-04 04:18 -34.28634 -59.32245 10985 ft 259 kts 130°
2026-05-04 04:18 -34.29862 -59.30655 10746 ft 264 kts 133°
2026-05-04 04:19 -34.31163 -59.29066 10498 ft 268 kts 134°
2026-05-04 04:19 -34.32489 -59.27460 10248 ft 271 kts 134°
2026-05-04 04:19 -34.33824 -59.25831 9999 ft 274 kts 134°
2026-05-04 04:19 -34.35164 -59.24176 9749 ft 276 kts 134°
2026-05-04 04:20 -34.36501 -59.22502 9499 ft 277 kts 134°
2026-05-04 04:20 -34.37833 -59.20809 9250 ft 279 kts 133°
2026-05-04 04:20 -34.39162 -59.19093 9000 ft 280 kts 133°
2026-05-04 04:20 -34.40486 -59.17355 8749 ft 280 kts 132°
2026-05-04 04:21 -34.41800 -59.15602 8499 ft 281 kts 132°
2026-05-04 04:21 -34.43102 -59.13835 8249 ft 282 kts 131°
2026-05-04 04:21 -34.44377 -59.12071 8002 ft 282 kts 130°
2026-05-04 04:21 -34.45619 -59.10226 7751 ft 282 kts 128°
2026-05-04 04:22 -34.46756 -59.08290 7501 ft 281 kts 124°
2026-05-04 04:22 -34.47784 -59.06267 7250 ft 281 kts 120°
2026-05-04 04:22 -34.48709 -59.04181 7000 ft 280 kts 118°
2026-05-04 04:22 -34.49552 -59.02053 6750 ft 280 kts 115°
2026-05-04 04:23 -34.50322 -58.99918 6503 ft 279 kts 114°
2026-05-04 04:23 -34.51052 -58.97740 6252 ft 278 kts 112°
2026-05-04 04:23 -34.51746 -58.95547 6001 ft 277 kts 111°
2026-05-04 04:23 -34.52409 -58.93359 5750 ft 276 kts 110°
2026-05-04 04:24 -34.53050 -58.91172 5500 ft 275 kts 110°
2026-05-04 04:24 -34.53674 -58.88988 5249 ft 273 kts 109°
2026-05-04 04:24 -34.54287 -58.86810 4999 ft 272 kts 109°
2026-05-04 04:24 -34.54889 -58.84641 4749 ft 271 kts 109°
2026-05-04 04:25 -34.55483 -58.82480 4498 ft 270 kts 109°
2026-05-04 04:25 -34.56072 -58.80319 4247 ft 269 kts 109°
2026-05-04 04:25 -34.56648 -58.78201 4000 ft 267 kts 109°
2026-05-04 04:25 -34.57228 -58.76057 3749 ft 266 kts 109°
2026-05-04 04:26 -34.57804 -58.73925 3498 ft 265 kts 109°
2026-05-04 04:26 -34.58374 -58.71808 3248 ft 263 kts 109°
2026-05-04 04:26 -34.58940 -58.69707 3084 ft 259 kts 108°
2026-05-04 04:26 -34.59489 -58.67663 3031 ft 251 kts 108°
2026-05-04 04:27 -34.60020 -58.65678 3001 ft 244 kts 108°
2026-05-04 04:27 -34.60530 -58.63773 2994 ft 238 kts 108°
2026-05-04 04:27 -34.61035 -58.61886 2995 ft 233 kts 108°
2026-05-04 04:27 -34.61544 -58.59995 2993 ft 235 kts 105°
2026-05-04 04:28 -34.62047 -58.58096 3006 ft 235 kts 111°
2026-05-04 04:28 -34.62539 -58.56225 3003 ft 230 kts 111°
2026-05-04 04:28 -34.63025 -58.54396 3010 ft 224 kts 110°
2026-05-04 04:28 -34.63499 -58.52625 3000 ft 217 kts 110°
2026-05-04 04:29 -34.63953 -58.50924 2998 ft 212 kts 110°
2026-05-04 04:29 -34.64403 -58.49216 2997 ft 208 kts 109°
2026-05-04 04:29 -34.64400 -58.47486 2913 ft 217 kts 77°
2026-05-04 04:29 -34.63480 -58.46013 2658 ft 227 kts 38°
2026-05-04 04:30 -34.62018 -58.45282 2430 ft 227 kts 13°
2026-05-04 04:30 -34.60559 -58.44545 2164 ft 230 kts 36°
2026-05-04 04:30 -34.59707 -58.42980 2045 ft 221 kts 76°
2026-05-04 04:30 -34.59718 -58.41176 2027 ft 210 kts 97°
2026-05-04 04:31 -34.59621 -58.39444 2016 ft 203 kts 79°
2026-05-04 04:31 -34.59603 -58.37799 1995 ft 191 kts 109°
2026-05-04 04:31 -34.60406 -58.36619 2012 ft 179 kts 148°
2026-05-04 04:31 -34.61485 -58.35910 2009 ft 174 kts 155°
2026-05-04 04:32 -34.62565 -58.35274 2008 ft 170 kts 152°
2026-05-04 04:32 -34.63608 -58.34622 2008 ft 167 kts 155°
2026-05-04 04:32 -34.64612 -58.33940 2009 ft 164 kts 153°
2026-05-04 04:32 -34.65569 -58.33233 2010 ft 162 kts 150°
2026-05-04 04:33 -34.66502 -58.32477 2010 ft 160 kts 148°
2026-05-04 04:33 -34.67395 -58.31677 2010 ft 159 kts 145°
2026-05-04 04:33 -34.68244 -58.30829 2010 ft 157 kts 142°
2026-05-04 04:33 -34.69018 -58.29889 2009 ft 157 kts 133°
2026-05-04 04:34 -34.69627 -58.28788 2010 ft 157 kts 122°
2026-05-04 04:34 -34.69947 -58.28000 2011 ft 157 kts 117°
2026-05-04 04:34 -34.70696 -58.25512 2010 ft 156 kts 109°
2026-05-04 04:35 -34.69400 -58.23413 1836 ft 161 kts 350°
2026-05-04 04:35 -34.68334 -58.23767 1772 ft 158 kts 334°
2026-05-04 04:35 -34.67333 -58.24287 1737 ft 156 kts 330°
2026-05-04 04:36 -34.66363 -58.24868 1715 ft 154 kts 328°
2026-05-04 04:36 -34.65455 -58.25531 1710 ft 150 kts 320°
2026-05-04 04:36 -34.64672 -58.26346 1710 ft 146 kts 312°
2026-05-04 04:36 -34.64002 -58.27256 1710 ft 143 kts 307°
2026-05-04 04:37 -34.62290 -58.30144 1731 ft 136 kts 301°
2026-05-04 04:37 -34.61779 -58.31062 1698 ft 133 kts 301°
2026-05-04 04:38 -34.61263 -58.31990 1468 ft 132 kts 301°
2026-05-04 04:38 -34.60748 -58.32916 1192 ft 133 kts 300°
2026-05-04 04:38 -34.60239 -58.33827 1043 ft 126 kts 300°
2026-05-04 04:38 -34.59755 -58.34696 903 ft 123 kts 301°
2026-05-04 04:39 -34.59282 -58.35548 762 ft 120 kts 302°
2026-05-04 04:39 -34.58814 -58.36391 621 ft 120 kts 303°
2026-05-04 04:39 -34.58348 -58.37227 495 ft 119 kts 303°
2026-05-04 04:39 -34.57885 -58.38058 383 ft 118 kts 304°
2026-05-04 04:40 -34.57436 -58.38863 279 ft 116 kts 304°
2026-05-04 04:40 -34.56983 -58.39671 166 ft 116 kts 304°
2026-05-04 04:40 -34.56529 -58.40474 59 ft 114 kts 304°
2026-05-04 04:40 -34.56097 -58.41236 27 ft 88 kts 304°
2026-05-04 04:41 -34.55902 -58.41588 26 ft 38 kts 304°
2026-05-04 04:41 -34.55796 -58.41766 26 ft 20 kts 309°
2026-05-04 04:41 -34.55744 -58.41827 26 ft 2 kts 352°
2026-05-04 04:41 -34.55732 -58.41825 26 ft 2 kts 19°
2026-05-04 04:42 -34.55722 -58.41818 26 ft 2 kts 43°
2026-05-04 04:42 -34.55717 -58.41764 26 ft 9 kts 109°
2026-05-04 04:42 -34.55749 -58.41683 26 ft 11 kts 116°
2026-05-04 04:42 -34.55739 -58.41600 26 ft 4 kts 43°
2026-05-04 04:43 -34.55719 -58.41595 26 ft 2 kts 334°
2026-05-04 04:43 -34.55714 -58.41602 26 ft 0 kts 297°